This demonstration page uses our WeatherBlox Daily Observations layout. Learn more.

Left ArrowRight Arrow

Hourly Observations for April 3, 2016

Temp ( °F °C ) Dew Point ( °F °C ) Humidity (%) Winds ( mph kmh ) Pressure ( in mb ) Visibility ( mi km ) Precip ( " mm )
12:51 am 00:51 Clear 49 9.4 13 -10.6 23 23 ESE 7 11 30.11 1020 10 16 0.00 0.00
1:51 am 01:51 Clear 46 7.8 13 -10.6 26 26 SE 6 9 30.10 1019 10 16 0.00 0.00
2:51 am 02:51 Clear 44 6.7 13 -10.6 28 28 SE 3 6 30.10 1019 10 16 0.00 0.00
3:51 am 03:51 Clear 46 7.8 14 -10 27 27 SSE 8 13 30.09 1019 10 16 0.00 0.00
4:51 am 04:51 Clear 47 8.3 15 -9.4 28 28 SE 9 15 30.08 1019 10 16 0.00 0.00
5:51 am 05:51 Clear 45 7.2 14 -10 29 29 SSE 10 17 30.10 1019 10 16 0.00 0.00
6:51 am 06:51 Sunny 49 9.4 17 -8.3 28 28 SE 8 13 30.11 1020 10 16 0.00 0.00
7:51 am 07:51 Sunny 57 13.9 17 -8.3 21 21 SE 15 24 30.12 1020 10 16 0.00 0.00
8:51 am 08:51 Sunny 59 15 16 -8.9 18 18 SSE 10 17 30.14 1021 10 16 0.00 0.00
9:51 am 09:51 Sunny 64 17.8 16 -8.9 15 15 SSE 8 13 30.12 1020 10 16 0.00 0.00
10:51 am 10:51 Sunny 69 20.6 14 -10 12 12 SE 8 13 30.10 1019 10 16 0.00 0.00
11:51 am 11:51 Sunny 72 22.2 14 -10 11 11 Calm 30.06 1018 10 16 0.00 0.00
12:51 pm 12:51 Sunny 75 23.9 14 -10 10 10 S 9 15 30.03 1017 10 16 0.00 0.00
1:51 pm 13:51 Sunny 79 26.1 15 -9.4 9 9 S 10 17 29.98 1015 10 16 0.00 0.00
2:51 pm 14:51 Sunny 79 26.1 14 -10 8 8 SSE 8 13 29.96 1014 10 16 0.00 0.00
3:51 pm 15:51 Sunny 79 26.1 14 -10 8 8 SSE 7 11 29.93 1013 10 16 0.00 0.00
4:51 pm 16:51 Sunny 80 26.7 13 -10.6 8 8 NNW 5 7 29.91 1013 10 16 0.00 0.00
5:51 pm 17:51 Sunny 79 26.1 14 -10 8 8 Calm 29.92 1013 10 16 0.00 0.00
6:51 pm 18:51 Clear 74 23.3 13 -10.6 9 9 SW 3 6 29.92 1013 10 16 0.00 0.00
7:51 pm 19:51 Clear 66 18.9 12 -11.1 12 12 NNW 6 9 29.94 1014 10 16 0.00 0.00
8:51 pm 20:51 Clear 60 15.6 12 -11.1 15 15 N 6 9 29.98 1015 10 16 0.00 0.00
9:51 pm 21:51 Clear 55 12.8 11 -11.7 17 17 E 5 7 29.99 1016 10 16 0.00 0.00
10:51 pm 22:51 Clear 55 12.8 11 -11.7 17 17 E 5 7 30.00 1016 10 16 0.00 0.00
11:51 pm 23:51 Clear 52 11.1 10 -12.2 18 18 E 3 6 30.01 1016 10 16 0.00 0.00

Powered by AerisWeather